Voltar ao catálogo

SL-12 DEB

LostHEO
NORAD 27770·DEBRIS·🇷🇺 Russia

Lançado May 17, 1985 de Baikonur Cosmodrome

Loading…

Próximas Passagens (próximas 24 horas)

TLE

ObsoletoSource: Space-Track

Época: Jan 16, 2003, 20:00 UTC

1 27770U 85037L   03016.83349313 +.00005869 +00000-0 +22941-1 0  9997
2 27770 052.9407 067.9349 4626099 240.2121 066.1350 05.81341587011687

Acompanhe SL-12 DEB em tempo real com AllMySat

Download on the App Store